Location: Paderno d�Adda
(45.6667°N, 9.4333°E)
Time: 00:53:32
(UTC+00:00)

HJ-1C - Pass Details

Date: 19 September 2020
Orbit: 432 x 443 km, 97.1° (Epoch: 26 October)

Event Time Altitude Azimuth Distance (km) Brightness Sun altitude
Rises 17:45:49 0° 145° (SE) 2,397 6.7 -4.4°
Reaches altitude 10° 17:47:57 10° 134° (SE) 1,535 5.6 -4.8°
Maximum altitude 17:50:52 30° 71° (ENE) 801 4.2 -5.3°
Drops below altitude 10° 17:53:50 10° 8° (N) 1,550 6.1 -5.8°
Sets 17:56:00 0° 358° (N) 2,426 7.3 -6.2°
